When you browse on this site, cookies collect data to enhance your experience and personalize the content and advertising you see.
Visit our Privacy Policy to learn more. By continuing to use the site, you agree to this use of cookies and data.

Hourly Weather Budilovo

Today, 8 August, Saturday

Time Temperature Precipitation Wind Pressure Humidity
00:00 +15°C° 0 mm 1 mps 749 mmHg 91%
01:00 +14°C° 0 mm 1 mps 750 mmHg 93%
02:00 +14°C° 0 mm 1 mps 750 mmHg 95%
03:00 +14°C° 0 mm 1 mps 750 mmHg 95%
04:00 +14°C° 0 mm 1 mps 749 mmHg 95%
05:00 +14°C° 0 mm 1 mps 749 mmHg 95%
06:00 +16°C° 0 mm 2 mps 749 mmHg 89%
07:00 +18°C° 0 mm 2 mps 749 mmHg 82%
08:00 +20°C° 0 mm 2 mps 749 mmHg 76%
09:00 +21°C° 0.1 mm 2 mps 749 mmHg 70%
10:00 +23°C° 0.1 mm 2 mps 749 mmHg 64%
11:00 +24°C° 0.1 mm 3 mps 749 mmHg 58%
12:00 +25°C° 0 mm 3 mps 748 mmHg 57%
13:00 +25°C° 0 mm 3 mps 748 mmHg 55%
14:00 +25°C° 0 mm 3 mps 747 mmHg 54%
15:00 +25°C° 0 mm 3 mps 747 mmHg 58%
16:00 +25°C° 0 mm 2 mps 747 mmHg 62%
17:00 +24°C° 0 mm 2 mps 746 mmHg 65%
18:00 +21°C° 0 mm 2 mps 746 mmHg 73%
19:00 +21°C° 0 mm 1 mps 746 mmHg 80%
20:00 +19°C° 0 mm 1 mps 746 mmHg 87%
21:00 +18°C° 0 mm 1 mps 746 mmHg 89%
22:00 +18°C° 0 mm 1 mps 746 mmHg 91%
23:00 +16°C° 0 mm 1 mps 746 mmHg 93%

Tomorrow, 9 August, Sunday

Time Temperature Precipitation Wind Pressure Humidity
00:00 +16°C° 0 mm 1 mps 746 mmHg 94%
01:00 +16°C° 0 mm 1 mps 746 mmHg 95%
02:00 +15°C° 0 mm 1 mps 745 mmHg 96%
03:00 +15°C° 0 mm 1 mps 745 mmHg 96%
04:00 +15°C° 0 mm 1 mps 745 mmHg 95%
05:00 +15°C° 0 mm 2 mps 745 mmHg 94%
06:00 +17°C° 0 mm 2 mps 745 mmHg 87%
07:00 +19°C° 0 mm 2 mps 745 mmHg 80%
08:00 +20°C° 0 mm 2 mps 745 mmHg 73%
09:00 +23°C° 0 mm 2 mps 745 mmHg 68%
10:00 +24°C° 0 mm 2 mps 745 mmHg 63%
11:00 +25°C° 0 mm 2 mps 744 mmHg 57%
12:00 +25°C° 0.3 mm 2 mps 744 mmHg 60%
13:00 +25°C° 0.3 mm 3 mps 744 mmHg 63%
14:00 +25°C° 0.3 mm 3 mps 743 mmHg 66%
15:00 +24°C° 0.6 mm 2 mps 743 mmHg 72%
16:00 +24°C° 0.6 mm 2 mps 743 mmHg 79%
17:00 +23°C° 0.6 mm 1 mps 743 mmHg 85%
18:00 +22°C° 0.2 mm 1 mps 743 mmHg 88%
19:00 +20°C° 0.2 mm 1 mps 743 mmHg 90%
20:00 +19°C° 0.2 mm 1 mps 743 mmHg 93%
21:00 +18°C° 0 mm 1 mps 743 mmHg 93%
22:00 +16°C° 0 mm 1 mps 743 mmHg 94%
23:00 +15°C° 0 mm 0 mps 743 mmHg 94%

Day after tomorrow, 10 August, Monday

Time Temperature Precipitation Wind Pressure Humidity
00:00 +14°C° 0 mm 0 mps 743 mmHg 95%
01:00 +14°C° 0 mm 0 mps 743 mmHg 95%
02:00 +14°C° 0 mm 0 mps 743 mmHg 96%
03:00 +14°C° 0 mm 0 mps 743 mmHg 96%
04:00 +15°C° 0 mm 1 mps 743 mmHg 96%
05:00 +15°C° 0 mm 1 mps 743 mmHg 96%
06:00 +18°C° 0 mm 1 mps 743 mmHg 92%
07:00 +19°C° 0 mm 1 mps 743 mmHg 87%
08:00 +21°C° 0 mm 1 mps 743 mmHg 83%
09:00 +23°C° 0.2 mm 1 mps 743 mmHg 74%
10:00 +24°C° 0.2 mm 2 mps 742 mmHg 66%
11:00 +26°C° 0.2 mm 2 mps 742 mmHg 57%
12:00 +26°C° 0.3 mm 2 mps 742 mmHg 59%
13:00 +26°C° 0.3 mm 3 mps 742 mmHg 62%
14:00 +26°C° 0.3 mm 3 mps 741 mmHg 64%
15:00 +25°C° 0.7 mm 3 mps 741 mmHg 72%
16:00 +22°C° 0.7 mm 3 mps 741 mmHg 79%
17:00 +21°C° 0.7 mm 2 mps 741 mmHg 87%
18:00 +20°C° 0.1 mm 2 mps 741 mmHg 89%
19:00 +19°C° 0.1 mm 2 mps 741 mmHg 91%
20:00 +17°C° 0.1 mm 2 mps 741 mmHg 93%
21:00 +16°C° 0 mm 2 mps 741 mmHg 94%
22:00 +14°C° 0 mm 2 mps 741 mmHg 95%
23:00 +13°C° 0 mm 2 mps 741 mmHg 96%

11 August, Tuesday

Time Temperature Precipitation Wind Pressure Humidity
00:00 +12°C° 0 mm 2 mps 741 mmHg 97%
01:00 +12°C° 0 mm 2 mps 741 mmHg 97%
02:00 +10°C° 0 mm 2 mps 742 mmHg 98%
03:00 +10°C° 0 mm 2 mps 742 mmHg 98%
04:00 +10°C° 0 mm 2 mps 742 mmHg 98%
05:00 +10°C° 0 mm 2 mps 742 mmHg 98%
06:00 +11°C° 0 mm 3 mps 742 mmHg 93%
07:00 +12°C° 0 mm 3 mps 742 mmHg 87%
08:00 +14°C° 0 mm 3 mps 742 mmHg 82%
09:00 +14°C° 0 mm 4 mps 742 mmHg 78%
10:00 +15°C° 0 mm 4 mps 742 mmHg 75%
11:00 +15°C° 0 mm 4 mps 742 mmHg 71%
12:00 +15°C° 0.1 mm 4 mps 742 mmHg 71%
13:00 +15°C° 0.1 mm 4 mps 742 mmHg 72%
14:00 +15°C° 0.1 mm 4 mps 742 mmHg 73%
15:00 +15°C° 0.1 mm 4 mps 742 mmHg 76%
16:00 +14°C° 0.1 mm 4 mps 742 mmHg 79%
17:00 +13°C° 0.1 mm 4 mps 742 mmHg 82%
18:00 +13°C° 0 mm 4 mps 742 mmHg 84%
19:00 +12°C° 0 mm 4 mps 742 mmHg 86%
20:00 +11°C° 0 mm 4 mps 742 mmHg 88%
21:00 +11°C° 0 mm 4 mps 742 mmHg 87%
22:00 +11°C° 0 mm 3 mps 742 mmHg 86%
23:00 +11°C° 0 mm 3 mps 742 mmHg 85%

12 August, Wednesday

Time Temperature Precipitation Wind Pressure Humidity
00:00 +11°C° 0 mm 3 mps 742 mmHg 86%
01:00 +11°C° 0 mm 3 mps 741 mmHg 86%
02:00 +11°C° 0 mm 3 mps 741 mmHg 87%
03:00 +11°C° 0.1 mm 4 mps 741 mmHg 89%
04:00 +11°C° 0.1 mm 4 mps 741 mmHg 91%
05:00 +10°C° 0.1 mm 4 mps 741 mmHg 94%
06:00 +11°C° 0.1 mm 4 mps 741 mmHg 93%
07:00 +11°C° 0.1 mm 4 mps 742 mmHg 92%
08:00 +11°C° 0.1 mm 4 mps 742 mmHg 91%
09:00 +11°C° 0 mm 4 mps 742 mmHg 89%
10:00 +11°C° 0 mm 4 mps 742 mmHg 87%
11:00 +12°C° 0 mm 4 mps 742 mmHg 85%
12:00 +13°C° 0 mm 4 mps 743 mmHg 78%
13:00 +14°C° 0 mm 4 mps 743 mmHg 71%
14:00 +17°C° 0 mm 3 mps 743 mmHg 64%
15:00 +17°C° 0.1 mm 3 mps 743 mmHg 65%
16:00 +17°C° 0.1 mm 3 mps 743 mmHg 66%
17:00 +17°C° 0.1 mm 3 mps 743 mmHg 66%
18:00 +14°C° 0 mm 3 mps 743 mmHg 70%
19:00 +13°C° 0 mm 2 mps 744 mmHg 74%
20:00 +12°C° 0 mm 2 mps 744 mmHg 77%
21:00 +12°C° 0 mm 2 mps 744 mmHg 76%
22:00 +12°C° 0 mm 2 mps 744 mmHg 74%
23:00 +12°C° 0 mm 2 mps 744 mmHg 72%

13 August, Thursday

Time Temperature Precipitation Wind Pressure Humidity
00:00 +9°C° 0 mm 2 mps 744 mmHg 77%
01:00 +8°C° 0 mm 2 mps 744 mmHg 82%
02:00 +7°C° 0 mm 2 mps 744 mmHg 87%
03:00 +7°C° 0 mm 2 mps 745 mmHg 88%
04:00 +7°C° 0 mm 2 mps 745 mmHg 90%
05:00 +7°C° 0 mm 2 mps 745 mmHg 92%
06:00 +9°C° 0 mm 2 mps 745 mmHg 83%
07:00 +12°C° 0 mm 2 mps 745 mmHg 74%
08:00 +14°C° 0 mm 2 mps 745 mmHg 65%
09:00 +15°C° 0 mm 2 mps 745 mmHg 60%
10:00 +17°C° 0 mm 2 mps 745 mmHg 54%
11:00 +18°C° 0 mm 2 mps 745 mmHg 49%
12:00 +18°C° 0 mm 2 mps 745 mmHg 50%
13:00 +18°C° 0 mm 2 mps 745 mmHg 51%
14:00 +18°C° 0 mm 2 mps 745 mmHg 51%
15:00 +18°C° 0.1 mm 2 mps 745 mmHg 56%
16:00 +18°C° 0.1 mm 1 mps 745 mmHg 62%
17:00 +18°C° 0.1 mm 1 mps 745 mmHg 67%
18:00 +15°C° 0 mm 1 mps 744 mmHg 72%
19:00 +14°C° 0 mm 1 mps 744 mmHg 76%
20:00 +12°C° 0 mm 1 mps 744 mmHg 81%
21:00 +11°C° 0 mm 1 mps 745 mmHg 84%
22:00 +11°C° 0 mm 1 mps 745 mmHg 86%
23:00 +10°C° 0 mm 1 mps 745 mmHg 88%
Show more